Chetumal, Mexico

5:02 PM on August 23, 2017 (GMT +0000)
Chetumal International

Weather History for MMCM - November, 2012

Change the Weather History Date:

Tuesday, November 20, 2012

  Actual Average Record
Temperature  
Mean Temperature 78 °F -  
Max Temperature 90 °F 81 °F 91 °F (2013)
Min Temperature 67 °F 69 °F 59 °F (2008)
Cooling Degree Days 13    
Growing Degree Days 28 (Base 50)    
Moisture  
Dew Point 72 °F    
Average Humidity 72    
Maximum Humidity 89    
Minimum Humidity 42    
Precipitation  
Precipitation 0.00 in - - ()
Sea Level Pressure  
Sea Level Pressure 29.99 in    
Wind  
Wind Speed 7 mph ()    
Max Wind Speed 12 mph    
Max Gust Speed -    
Visibility 6.6 miles    
Events Rain    
Averages and records for this station are not official NWS values.
T = Trace of Precipitation, MM = Missing Value Source: Averaged Metar Reports

Daily Weather History Graph

Daily Weather History Graph

Search for Another Location

Airport or City:

Trip Planner

Search our weather history database for the weather conditions in past years. The results will help you decide how hot, cold, wet, or windy it might be!

Date:

Astronomy

Nov. 20, 2012 Rise Set
Actual Time 6:02 AM CST 5:14 PM CST
Civil Twilight 5:39 AM CST 5:38 PM CST
Nautical Twilight 5:13 AM CST 6:04 PM CST
Astronomical Twilight 4:46 AM CST 6:31 PM CST
Moon 12:05 PM CST (11/20) No Moon Set
Length of Visible Light 11h 58m
Length of Day
11h 12m
First Quarter, 51% of the Moon is Illuminated
Nov 20
First Quarter
Nov 28
Full
Dec 6
Last Quarter
Dec 13
New
Dec 19
First Quarter

Hourly Weather History & Observations

Time (CST) Temp. Heat Index Dew Point Humidity Pressure Visibility Wind Dir Wind Speed Gust Speed Precip Events Conditions
5:50 AM 67 °F - 62 °F 81% 30.03 in 6 mi West 4.5 mph - -   Scattered Clouds
6:45 AM 77.0 °F - 71.6 °F 83% 29.96 in 7.0 mi South 11.5 mph - N/A   Scattered Clouds
7:45 AM 78.8 °F - 71.6 °F 78% 29.96 in 7.0 mi South 11.5 mph - N/A   Mostly Cloudy
8:45 AM 80.6 °F 84.6 °F 71.6 °F 74% 29.99 in 7.0 mi South 11.5 mph - N/A   Mostly Cloudy
9:45 AM 82.4 °F 89.5 °F 75.2 °F 79% 29.99 in 7.0 mi West 11.5 mph - N/A   Mostly Cloudy
10:45 AM 82.4 °F 89.5 °F 75.2 °F 79% 29.97 in 7.0 mi West 11.5 mph - N/A   Mostly Cloudy
11:45 AM 82.4 °F 89.5 °F 75.2 °F 79% 29.95 in 7.0 mi WNW 11.5 mph - N/A   Mostly Cloudy
11:50 AM 86 °F - 71 °F 52% 30.03 in 6 mi WNW 6.7 mph - -   Partly Cloudy
12:45 PM 82.4 °F 89.5 °F 75.2 °F 79% 29.92 in 7.0 mi WNW 11.5 mph - N/A   Mostly Cloudy
1:45 PM 82.4 °F 89.5 °F 75.2 °F 79% 29.89 in 7.0 mi West 11.5 mph - N/A   Mostly Cloudy
2:43 PM 86.0 °F 95.1 °F 75.2 °F 70% 29.97 in 7.0 mi WNW 5.8 mph - N/A   Scattered Clouds
2:50 PM 89 °F - 69 °F 42% 30.00 in 6 mi NW 4.5 mph - -   Partly Cloudy
3:42 PM 86.0 °F 95.1 °F 75.2 °F 70% 29.95 in 7.0 mi WNW 6.9 mph - N/A   Scattered Clouds
4:45 PM 86.0 °F 95.1 °F 75.2 °F 70% 29.96 in 7.0 mi Calm Calm - N/A   Scattered Clouds
5:43 PM 82.4 °F 87.2 °F 71.6 °F 70% 29.99 in 7.0 mi Calm Calm - N/A   Mostly Cloudy
6:00 PM 81 °F - 73 °F 70% 29.99 in 5 mi NE 4.5 mph - - Rain Light Drizzle
6:41 PM 80.6 °F 83.2 °F 68.0 °F 65% 29.99 in 7.0 mi Calm Calm - N/A   Mostly Cloudy
7:41 PM 78.8 °F - 66.2 °F 65% 30.03 in 7.0 mi North 9.2 mph - N/A   Scattered Clouds
8:42 PM 78.8 °F - 66.2 °F 65% 30.05 in 7.0 mi North 9.2 mph - N/A   Scattered Clouds
8:45 PM 76 °F - 71 °F 82% 30.06 in 5 mi NE 4.5 mph - -   Overcast
8:50 PM 73 °F - 70 °F 89% 30.04 in 5 mi North 4.5 mph - -   Scattered Clouds